CZ-2D DEB, 44606

Orbit data source: Space-Track

CZ-2D DEB, 44606 is space debris in SSO originally from a launch on Fri, 11 Nov 2016 UTC launched from the Jiuquan Satellite Launch Center, China (JSC). Debris objects in space refer to the collection of defunct objects orbiting the Earth. Examples of debris include non-operational satellites, rocket bodies, and fragments generated from explosions, collisions, or faulty payload assembly.

Loading next visibility...
Identifier
44606, 2016-068F
Orbit
SSO
Country
Flag of CNCN / PRC
Related business
Manufacturer
Unknown
Mission
Spacecraft
Bus & Motor
Unknown
Mass
Unknown
Launch date (UTC)
2016-11-11 (10 years ago)
Launch vehicle
Unknown
Launch site
Jiuquan Satellite Launch Center, China (JSC)
Object type
Payload
Rocket body
Debris
Shape & HBR
Unknown shape, 0.1 m
Radar Cross Section
Small (<0.1 m²)

Expand to show TLE details & history
Last TLE update: 3 days ago

TLE from 3 days ago
0 CZ-2D DEB
1 44606U 16068F   26255.00603569  .00000236  00000-0  17341-3 0  9990
2 44606  98.4225 324.3067 0222390 324.9514  33.7182 13.93041183498528
Epoch: 2026-09-12T00:08Z
TLE epoch observation values (Epoch: 2026-09-12T00:08:41.483Z)
Latitude
-0.00006°
Longitude
-28.88738°
Altitude
787.036 km
Speed
7.528 km/s
True Right ascension
21h 37m 13s
True Declination
0° 00' 00"
Sunlit
Object was in full shadow at epoch
Visualization orbit readout
Latitude
Unknown
Longitude
Unknown
Altitude
Unknown
Speed
Unknown
Apparent Right ascension
Unknown
Apparent Declination
Unknown
Sunlit
N/A
Visualization observer readout
Local Sidereal Time
12:43:47
Azimuth
Unknown
Elevation
Unknown
Doppler factor
Unknown
Orbital elements
Apogee altitude
1,077.368 km
Perigee altitude
752.976 km
Semi-major axis
7,293.309 km
Eccentricity
0.02224
Inclination
98.4225°
RAAN
324.3067°
Arg. of periapsis
324.9514°
True anomaly
35.16614°
Mean anomaly
33.7182°
Eccentric anomaly
34.43879°
Mean motion
3.48463 °/min
Orbital period
103.31 mins
BSTAR
0.00017341
Loading maneuver chart data...
Computing Atmospheric mass density...
Loading historical data...
Loading historical data...
Loading historical data...
Loading historical data...
Loading historical data...
Loading historical data...
Loading historical data...

Documentation

Showing up to 5 results
|